Flag for Germany Weather past 2 weeks in Lüneburg, Lower Saxony, Germany

Now
37 °F

Partly sunny.


Feels Like: 31 °F
Forecast: 35 / 46 °F
Wind: 8 mph from Northwest

Location: Fassberg

Current Time: Mar 5, 2015 at 9:32:09 AM

Latest Report: Mar 5, 2015 at 8:20 AM


Visibility: 4 mi

Pressure: 30.51 "Hg

Humidity: 93%

Dew point: 36 °F

Location of LüneburgLocation

Historic Weather in Lüneburg — Graph

°F

Lüneburg temperature yesterday

Maximum temperature yesterday: 41 °F (at 12:20 PM)
Minimum temperature yesterday: 32 °F (at 6:20 AM)
Average temperature yesterday: 37 °F

Past Weeks' High & Low Weather Summary

 TemperatureHumidityPressure
High48 °F (Feb 26, 1:20 PM)100% (Feb 18, 8:02 AM)30.72 "Hg (Feb 18, 8:02 AM)
Low30 °F (Feb 19, 2:20 AM)49% (Feb 18, 5:00 PM)29.27 "Hg (Feb 21, 10:20 AM)
Average38 °F81%29.85 "Hg
* Reported Feb 18 8:02 AM — Mar 5 8:20 AM, Lüneburg, Weather by CustomWeather, © 2015

Note: Actual official high and low records may vary slightly from our data, if they occured in-between our weather recording intervals... More about our weather records

Advertising

Lüneburg weather history for previous 24 hours

 ConditionsComfort  
Time TempWeatherWind HumidityBarometerVisibility
8:20 AM
Thu, Mar 5
37 °FPartly sunny.8 mph93%30.51 "Hg4 mi
7:20 AM36 °FFog.8 mph100%30.48 "Hg3 mi
6:20 AM34 °FPassing clouds.7 mph93%30.48 "Hg6 mi
5:20 AM34 °FPassing clouds.7 mph93%30.45 "HgN/A
4:20 AM36 °FPassing clouds.9 mph87%30.42 "HgN/A
2:20 AM36 °FPassing clouds.12 mph87%30.39 "HgN/A
1:20 AM37 °FPassing clouds.13 mph87%30.33 "HgN/A
12:20 AM37 °FPassing clouds.13 mph87%30.30 "HgN/A
11:20 PM
Wed, Mar 4
37 °FPartly cloudy.15 mph87%30.24 "HgN/A
10:20 PM37 °FPartly cloudy.15 mph93%30.21 "Hg5 mi
9:20 PM37 °FSprinkles. Partly cloudy.14 mph93%30.18 "Hg5 mi
8:20 PM37 °FPassing clouds.13 mph87%30.15 "HgN/A
8:00 PM37 °FSprinkles. Passing clouds.13 mph93%30.15 "HgN/A
7:20 PM36 °FPassing clouds.10 mph93%30.15 "HgN/A
6:20 PM37 °FSprinkles. Partly cloudy.13 mph87%30.12 "Hg4 mi
6:02 PM39 °FRain showers. Passing clouds.14 mph81%30.12 "Hg1 mi
5:50 PM39 °FRain showers. Partly sunny.14 mph81%30.12 "Hg3 mi
5:20 PM39 °FScattered clouds.12 mph87%30.09 "HgN/A
4:20 PM39 °FBroken clouds.10 mph87%30.09 "HgN/A
3:20 PM37 °FScattered clouds.12 mph87%30.12 "Hg5 mi
2:59 PM37 °FThunderstorms. Partly sunny.17 mph87%30.12 "Hg2 mi
2:53 PM41 °FLots of rain. Partly sunny.15 mph76%30.12 "Hg1 mi
2:20 PM41 °FPartly sunny.21 mph76%30.09 "Hg5 mi
1:20 PM41 °FPartly sunny.18 mph76%30.09 "HgN/A
12:20 PM41 °FBroken clouds.17 mph76%30.09 "HgN/A
11:20 AM39 °FLight rain. Partly sunny.15 mph81%30.09 "Hg6 mi
10:20 AM37 °FLight rain. Partly sunny.14 mph81%30.07 "Hg5 mi
9:20 AM36 °FBroken clouds.14 mph87%30.07 "HgN/A
Weather by CustomWeather, © 2015

See weather overviewHow to use our weather pages